DMSP 5D-2 F11 DEB, 28349

Orbit data source: Space-Track

DMSP 5D-2 F11 DEB, 28349 is space debris in SSO originally from a launch on Thu, 28 Nov 1991 UTC launched from the Air Force Western Test Range (AFWTR). Debris objects in space refer to the collection of defunct objects orbiting the Earth. Examples of debris include non-operational satellites, rocket bodies, and fragments generated from explosions, collisions, or faulty payload assembly.

Loading next visibility...
Identifier
28349, 1991-082BN
Orbit
SSO
Country
Flag of USUS
Related business
Manufacturer
Unknown
Mission
Spacecraft
Bus & Motor
Unknown
Mass
Unknown
Launch date (UTC)
1991-11-28 (35 years ago)
Launch vehicle
Unknown
Launch site
Air Force Western Test Range (AFWTR)
Object type
Payload
Rocket body
Debris
Shape & HBR
Unknown shape, 0.1 m
Radar Cross Section
Medium (>0.1 m² and <1 m²)

Expand to show TLE details & history
Last TLE update: 3 days ago

TLE from 3 days ago
0 DMSP 5D-2 F11 DEB
1 28349U 91082BN  26206.52194395  .00009266  00000-0  21332-2 0  9996
2 28349  98.8625 299.0697 0046124 231.9095 139.2655 14.54950437146020
Epoch: 2026-07-25T12:31Z
TLE epoch observation values (Epoch: 2026-07-25T12:31:35.957Z)
Latitude
11.33199°
Longitude
166.15579°
Altitude
736.563 km
Speed
7.474 km/s
True Right ascension
19h 49m 09s
True Declination
11° 15' 57"
Sunlit
Object was in full shadow at epoch
Visualization orbit readout
Latitude
Unknown
Longitude
Unknown
Altitude
Unknown
Speed
Unknown
Apparent Right ascension
Unknown
Apparent Declination
Unknown
Sunlit
N/A
Visualization observer readout
Local Sidereal Time
15:14:28
Azimuth
Unknown
Elevation
Unknown
Doppler factor
Unknown
Orbital elements
Apogee altitude
739.323 km
Perigee altitude
673.967 km
Semi-major axis
7,084.782 km
Eccentricity
0.00461
Inclination
98.8625°
RAAN
299.0697°
Arg. of periapsis
231.9095°
True anomaly
139.6089°
Mean anomaly
139.2655°
Eccentric anomaly
139.43735°
Mean motion
3.6396 °/min
Orbital period
98.91 mins
BSTAR
0.0021332
Loading maneuver chart data...
Computing Atmospheric mass density...

Documentation

Showing up to 5 results
|